Location: Newark
(23.5328°S, 46.7919°W)
Time: 02:19:10
(UTC+00:00)

ISS - Pass Details

Date: 06 March 2021
Orbit: 418 x 422 km, 51.6° (Epoch: 13 April)

Event Time Altitude Azimuth Distance (km) Brightness Sun altitude
Rises 22:37:08 0° 208° (SSW) 2,393 0.7 -15.7°
Reaches altitude 10° 22:39:27 10° 195° (SSW) 1,521 -0.6 -16.2°
Maximum altitude 22:42:26 27° 135° (SE) 847 -2.5 -16.9°
Enters shadow 22:42:28 27° 133° (SE) 847 -2.5 -16.9°
